Location: Austin
(30.3000°N, 97.7500°W)
Time: 02:13:28
(UTC-05:00)

Cosmos 2058 Rocket - Pass Details

Date: 15 May 2024
Orbit: 608 x 634 km, 82.5° (Epoch: 30 May)

Event Time Altitude Azimuth Distance (km) Brightness Sun altitude
Rises 20:49:04 0° 165° (SSE) 2,860 6.1 -6.8°
Reaches altitude 10° 20:51:25 10° 155° (SSE) 1,963 5.2 -7.3°
Maximum altitude 20:55:20 33° 91° (E) 1,032 3.8 -8.0°
Drops below altitude 10° 20:59:17 10° 27° (NNE) 1,988 5.7 -8.8°
Sets 21:01:40 0° 18° (NNE) 2,902 6.6 -9.2°
